| time (UTC) | temp C | wind direction | speed KPH | gust KPH | rain 1hr cm | rain 24hr cm | rain mn cm | humidity % | barometer mb |
| 20260902224548 | 30 | 290 | 3.2 | 8.0 | 0.00 | 0.03 | 0.00 | 67 | 1012.6 |
| 20260902223044 | 31 | 250 | 3.2 | 8.0 | 0.00 | 0.03 | 0.00 | 66 | 1012.8 |
| 20260902221544 | 31 | 240 | 1.6 | 9.7 | 0.00 | 0.03 | 0.00 | 66 | 1013.0 |
| 20260902220045 | 31 | 236 | 3.2 | 11.3 | 0.00 | 0.03 | 0.00 | 64 | 1012.7 |
| 20260902214543 | 31 | 328 | 3.2 | 9.7 | 0.00 | 0.13 | 0.00 | 64 | 1012.7 |
| 20260902213049 | 31 | 260 | 6.4 | 19.3 | 0.00 | 0.13 | 0.00 | 61 | 1013.0 |
| 20260902211544 | 32 | 243 | 8.0 | 19.3 | 0.00 | 0.13 | 0.00 | 58 | 1012.9 |
| 20260902210045 | 31 | 252 | 6.4 | 19.3 | 0.00 | 0.13 | 0.00 | 59 | 1012.9 |
| 20260902204551 | 32 | 259 | 9.7 | 19.3 | 0.00 | 0.18 | 0.00 | 57 | 1013.0 |
| 20260902203048 | 31 | 193 | 6.4 | 17.7 | 0.00 | 0.18 | 0.00 | 63 | 1012.6 |
| 20260902201553 | 31 | 333 | 4.8 | 12.9 | 0.00 | 0.18 | 0.00 | 64 | 1012.8 |
| 20260902200045 | 31 | 255 | 4.8 | 12.9 | 0.00 | 0.18 | 0.00 | 65 | 1013.0 |
| 20260902194541 | 31 | 250 | 6.4 | 12.9 | 0.00 | 0.18 | 0.00 | 64 | 1013.1 |
| 20260902193046 | 31 | 250 | 3.2 | 16.1 | 0.00 | 0.18 | 0.00 | 64 | 1013.2 |
| 20260902191543 | 31 | 252 | 3.2 | 11.3 | 0.00 | 0.18 | 0.00 | 68 | 1013.3 |
| 20260902190040 | 31 | 238 | 3.2 | 11.3 | 0.00 | 0.18 | 0.00 | 68 | 1013.4 |
| 20260902184540 | 31 | 159 | 0.0 | 3.2 | 0.00 | 0.18 | 0.00 | 67 | 1013.5 |
| 20260902183048 | 30 | 248 | 1.6 | 12.9 | 0.00 | 0.18 | 0.00 | 67 | 1013.6 |
| 20260902181553 | 30 | 259 | 3.2 | 8.0 | 0.00 | 0.18 | 0.00 | 67 | 1013.7 |
| 20260902180040 | 30 | 276 | 1.6 | 9.7 | 0.00 | 0.18 | 0.00 | 68 | 1013.8 |
| 20260902174539 | 30 | 227 | 4.8 | 12.9 | 0.00 | 0.18 | 0.00 | 66 | 1014.0 |
| 20260902173047 | 30 | 183 | 1.6 | 8.0 | 0.00 | 0.18 | 0.00 | 65 | 1014.0 |
| 20260902171559 | 30 | 285 | 3.2 | 8.0 | 0.00 | 0.18 | 0.00 | 65 | 1014.0 |
| 20260902170050 | 30 | 0 | 1.6 | 6.4 | 0.00 | 0.18 | 0.00 | 64 | 1014.1 |
| 20260902164545 | 29 | 256 | 0.0 | 4.8 | 0.00 | 0.18 | 0.00 | 66 | 1014.4 |
| 20260902163042 | 28 | 102 | 0.0 | 8.0 | 0.00 | 0.18 | 0.00 | 69 | 1014.6 |
| 20260902161543 | 27 | 143 | 3.2 | 12.9 | 0.00 | 0.18 | 0.00 | 70 | 1013.9 |
| 20260902154545 | 27 | 155 | 4.8 | 9.7 | 0.00 | 0.18 | 0.00 | 70 | 1014.3 |
| 20260902153041 | 26 | 60 | 4.8 | 11.3 | 0.00 | 0.18 | 0.00 | 72 | 1014.5 |
| 20260902151555 | 26 | 0 | 1.6 | 11.3 | 0.00 | 0.18 | 0.00 | 73 | 1014.6 |
| 20260902150048 | 26 | 77 | 1.6 | 6.4 | 0.00 | 0.18 | 0.00 | 74 | 1014.6 |
| 20260902144543 | 25 | 56 | 4.8 | 8.0 | 0.00 | 0.18 | 0.00 | 76 | 1014.6 |
| 20260902143045 | 24 | 122 | 3.2 | 8.0 | 0.00 | 0.18 | 0.00 | 76 | 1014.7 |
| 20260902141540 | 24 | 67 | 1.6 | 6.4 | 0.00 | 0.18 | 0.00 | 76 | 1015.0 |
| 20260902140047 | 24 | 131 | 1.6 | 9.7 | 0.00 | 0.18 | 0.00 | 75 | 1015.2 |
| 20260902134544 | 25 | 108 | 3.2 | 11.3 | 0.00 | 0.18 | 0.00 | 74 | 1015.0 |
| 20260902133047 | 24 | 57 | 4.8 | 9.7 | 0.00 | 0.18 | 0.00 | 77 | 1015.0 |
| 20260902131551 | 24 | 70 | 6.4 | 12.9 | 0.00 | 0.18 | 0.00 | 77 | 1015.4 |
| 20260902130045 | 24 | 56 | 3.2 | 8.0 | 0.00 | 0.18 | 0.00 | 79 | 1015.5 |
| 20260902124543 | 24 | 65 | 4.8 | 8.0 | 0.00 | 0.18 | 0.00 | 81 | 1015.4 |
| 20260902123046 | 23 | 0 | 1.6 | 9.7 | 0.00 | 0.18 | 0.00 | 84 | 1015.7 |
| 20260902121540 | 23 | 0 | 1.6 | 11.3 | 0.00 | 0.18 | 0.00 | 86 | 1015.6 |
| 20260902120046 | 23 | 0 | 0.0 | 6.4 | 0.00 | 0.18 | 0.00 | 86 | 1015.2 |
| 20260902114552 | 23 | 293 | 0.0 | 9.7 | 0.00 | 0.18 | 0.00 | 84 | 1015.3 |
| 20260902113040 | 22 | 0 | 0.0 | 0.0 | 0.00 | 0.18 | 0.00 | 83 | 1014.9 |
| 20260902111550 | 22 | 0 | 0.0 | 0.0 | 0.00 | 0.18 | 0.00 | 83 | 1014.0 |
| 20260902110058 | 22 | 0 | 0.0 | 0.0 | 0.00 | 0.18 | 0.00 | 83 | 1013.9 |
| 20260902104543 | 22 | 0 | 0.0 | 0.0 | 0.00 | 0.18 | 0.00 | 83 | 1014.2 |
| 20260902103042 | 22 | 0 | 0.0 | 0.0 | 0.00 | 0.18 | 0.00 | 83 | 1014.1 |
| 20260902101543 | 22 | 0 | 0.0 | 0.0 | 0.00 | 0.18 | 0.00 | 83 | 1014.2 |
| 20260902100043 | 22 | 0 | 0.0 | 0.0 | 0.00 | 0.18 | 0.00 | 83 | 1014.3 |
| 20260902094545 | 23 | 0 | 0.0 | 0.0 | 0.00 | 0.18 | 0.00 | 83 | 1014.5 |
| 20260902093047 | 22 | 0 | 0.0 | 0.0 | 0.00 | 0.18 | 0.00 | 84 | 1014.4 |
| 20260902091541 | 22 | 0 | 0.0 | 0.0 | 0.00 | 0.18 | 0.00 | 84 | 1014.4 |
| 20260902090043 | 23 | 0 | 0.0 | 0.0 | 0.00 | 0.18 | 0.00 | 84 | 1014.1 |
| 20260902084556 | 23 | 0 | 0.0 | 0.0 | 0.00 | 0.18 | 0.00 | 85 | 1014.1 |
| 20260902083047 | 23 | 0 | 0.0 | 0.0 | 0.00 | 0.18 | 0.00 | 85 | 1014.3 |
| 20260902081545 | 23 | 0 | 0.0 | 0.0 | 0.00 | 0.18 | 0.00 | 85 | 1014.0 |
| 20260902080055 | 23 | 0 | 0.0 | 0.0 | 0.00 | 0.18 | 0.00 | 85 | 1013.8 |
| 20260902074546 | 23 | 0 | 0.0 | 0.0 | 0.00 | 0.18 | 0.00 | 86 | 1014.2 |
| 20260902073046 | 24 | 0 | 0.0 | 0.0 | 0.00 | 0.18 | 0.00 | 86 | 1014.1 |
| 20260902071542 | 24 | 0 | 0.0 | 3.2 | 0.00 | 0.18 | 0.00 | 86 | 1014.1 |
| 20260902070044 | 24 | 0 | 0.0 | 0.0 | 0.00 | 0.18 | 0.00 | 86 | 1014.1 |
| 20260902064540 | 24 | 0 | 0.0 | 0.0 | 0.00 | 0.18 | 0.00 | 86 | 1013.9 |
| 20260902063043 | 24 | 0 | 0.0 | 0.0 | 0.00 | 0.18 | 0.00 | 85 | 1013.9 |
| 20260902060048 | 24 | 0 | 0.0 | 0.0 | 0.00 | 0.18 | 0.00 | 85 | 1014.4 |
| 20260902054547 | 24 | 0 | 0.0 | 0.0 | 0.00 | 0.18 | 0.00 | 86 | 1014.4 |
| 20260902053041 | 24 | 0 | 0.0 | 0.0 | 0.00 | 0.18 | 0.00 | 86 | 1014.2 |
| 20260902051547 | 24 | 0 | 0.0 | 0.0 | 0.00 | 0.18 | 0.00 | 86 | 1014.0 |
| 20260902050042 | 25 | 0 | 0.0 | 0.0 | 0.00 | 0.18 | 0.00 | 86 | 1013.8 |
| 20260902044540 | 25 | 0 | 0.0 | 0.0 | 0.00 | 0.18 | 0.18 | 86 | 1014.1 |
| 20260902043057 | 25 | 0 | 0.0 | 0.0 | 0.00 | 0.18 | 0.18 | 87 | 1013.9 |
| 20260902041546 | 25 | 0 | 0.0 | 0.0 | 0.00 | 0.18 | 0.18 | 86 | 1014.0 |
| 20260902040044 | 25 | 215 | 0.0 | 1.6 | 0.00 | 0.18 | 0.18 | 86 | 1013.9 |
| 20260902034542 | 25 | 0 | 0.0 | 0.0 | 0.00 | 0.18 | 0.18 | 86 | 1013.6 |
| 20260902033057 | 25 | 0 | 0.0 | 1.6 | 0.00 | 0.18 | 0.18 | 86 | 1013.7 |
| 20260902031545 | 25 | 0 | 0.0 | 0.0 | 0.00 | 0.18 | 0.18 | 86 | 1014.0 |
| 20260902030042 | 25 | 0 | 0.0 | 0.0 | 0.00 | 0.18 | 0.18 | 86 | 1014.0 |
| 20260902024542 | 25 | 0 | 0.0 | 1.6 | 0.00 | 0.18 | 0.18 | 86 | 1014.1 |
| 20260902023049 | 25 | 0 | 0.0 | 0.0 | 0.00 | 0.18 | 0.18 | 87 | 1014.3 |
| 20260902021543 | 25 | 0 | 0.0 | 0.0 | 0.00 | 0.18 | 0.18 | 87 | 1014.4 |
| 20260902020042 | 25 | 0 | 0.0 | 0.0 | 0.00 | 0.18 | 0.18 | 87 | 1014.3 |
| 20260902014540 | 25 | 0 | 0.0 | 0.0 | 0.00 | 0.18 | 0.18 | 87 | 1014.3 |
| 20260902013044 | 25 | 0 | 0.0 | 0.0 | 0.00 | 0.18 | 0.18 | 87 | 1014.0 |
| 20260902011542 | 25 | 0 | 0.0 | 0.0 | 0.00 | 0.18 | 0.18 | 87 | 1014.0 |
| 20260902010046 | 25 | 0 | 0.0 | 0.0 | 0.00 | 0.18 | 0.18 | 87 | 1013.9 |
| 20260902004549 | 25 | 0 | 0.0 | 0.0 | 0.00 | 0.18 | 0.18 | 87 | 1013.7 |
| 20260902003048 | 26 | 0 | 0.0 | 0.0 | 0.00 | 0.18 | 0.18 | 86 | 1013.6 |
| 20260902001540 | 26 | 0 | 0.0 | 0.0 | 0.00 | 0.18 | 0.18 | 86 | 1013.7 |
| 20260902000051 | 26 | 0 | 0.0 | 1.6 | 0.00 | 0.18 | 0.18 | 86 | 1013.7 |
| 20260901234549 | 26 | 0 | 0.0 | 1.6 | 0.00 | 0.18 | 0.18 | 86 | 1013.6 |
| 20260901233046 | 26 | 0 | 0.0 | 0.0 | 0.00 | 0.18 | 0.18 | 85 | 1013.5 |
| 20260901231545 | 26 | 0 | 0.0 | 1.6 | 0.00 | 0.18 | 0.18 | 85 | 1013.0 |
| 20260901230046 | 26 | 0 | 0.0 | 1.6 | 0.03 | 0.18 | 0.18 | 84 | 1013.3 |